Mukilteo, WA

4:08 AM PST on February 25, 2017 (GMT -0800)
Snohomish County

Weather History for KPAE - September, 2013

Change the Weather History Date:

Wednesday, September 18, 2013

  Actual Average Record
Temperature  
Mean Temperature 58 °F -  
Max Temperature 64 °F 68 °F 80 °F (1991)
Min Temperature 53 °F 48 °F 37 °F (1965)
Degree Days  
Heating Degree Days 6    
Growing Degree Days 8 (Base 50)    
Moisture  
Dew Point 50 °F    
Average Humidity 77    
Maximum Humidity 94    
Minimum Humidity 50    
Precipitation  
Precipitation 0.02 in - - ()
Sea Level Pressure  
Sea Level Pressure 30.05 in    
Wind  
Wind Speed 4 mph (South)    
Max Wind Speed 8 mph    
Max Gust Speed -    
Visibility 10 miles    
Events      
Averages and records for this station are not official NWS values.
T = Trace of Precipitation, MM = Missing Value Source: NWS Daily Summary

Daily Weather History Graph

Daily Weather History Graph

Search for Another Location

Airport or City:

Trip Planner

Search our weather history database for the weather conditions in past years. The results will help you decide how hot, cold, wet, or windy it might be!

Date:

Astronomy

Sep. 18, 2013 Rise Set
Actual Time 6:50 AM PDT 7:14 PM PDT
Civil Twilight 6:19 AM PDT 7:45 PM PDT
Nautical Twilight 5:43 AM PDT 8:22 PM PDT
Astronomical Twilight 5:04 AM PDT 9:00 PM PDT
Moon 6:38 PM PDT (9/18) 5:58 AM PDT (9/18)
Length of Visible Light 13h 25m
Length of Day
12h 23m
Waxing Gibbous, 99% of the Moon is Illuminated
Sep 18
Waxing Gibbous
Sep 19
Full
Sep 26
Last Quarter
Oct 4
New
Oct 11
First Quarter

Hourly Weather History & Observations

Time (PDT) Temp. Dew Point Humidity Pressure Visibility Wind Dir Wind Speed Gust Speed Precip Events Conditions
12:53 AM 55.9 °F 51.1 °F 84% 29.96 in 10.0 mi ESE 4.6 mph - N/A   Scattered Clouds
1:14 AM 55.4 °F 51.8 °F 88% 29.97 in 10.0 mi Calm Calm - N/A   Mostly Cloudy
1:53 AM 55.9 °F 51.1 °F 84% 29.98 in 10.0 mi SSE 4.6 mph - N/A   Overcast
2:39 AM 55.4 °F 51.8 °F 88% 29.98 in 10.0 mi SSE 5.8 mph - N/A   Mostly Cloudy
2:53 AM 55.9 °F 51.1 °F 84% 29.99 in 10.0 mi SSE 6.9 mph - N/A   Partly Cloudy
3:53 AM 55.0 °F 52.0 °F 89% 29.99 in 10.0 mi South 4.6 mph - N/A   Overcast
4:53 AM 55.0 °F 52.0 °F 89% 30.01 in 10.0 mi Calm Calm - N/A   Overcast
5:36 AM 55.4 °F 51.8 °F 88% 30.01 in 10.0 mi South 4.6 mph - N/A   Overcast
5:53 AM 55.0 °F 52.0 °F 89% 30.02 in 10.0 mi South 3.5 mph - N/A   Overcast
6:03 AM 53.6 °F 51.8 °F 94% 30.02 in 10.0 mi SSW 4.6 mph - N/A   Mostly Cloudy
6:12 AM 53.6 °F 51.8 °F 94% 30.02 in 10.0 mi SSW 3.5 mph - N/A   Mostly Cloudy
6:53 AM 54.0 °F 52.0 °F 93% 30.03 in 10.0 mi South 3.5 mph - N/A   Overcast
7:53 AM 55.0 °F 52.0 °F 89% 30.04 in 9.0 mi SW 4.6 mph - N/A   Mostly Cloudy
8:35 AM 55.4 °F 51.8 °F 88% 30.05 in 10.0 mi SW 4.6 mph - N/A   Overcast
8:53 AM 55.0 °F 51.1 °F 86% 30.06 in 10.0 mi SW 5.8 mph - N/A   Overcast
9:53 AM 57.0 °F 51.1 °F 81% 30.07 in 10.0 mi SSW 4.6 mph - N/A   Mostly Cloudy
10:03 AM 57.2 °F 51.8 °F 82% 30.07 in 10.0 mi SW 5.8 mph - 0.01 in   Scattered Clouds
10:53 AM 57.9 °F 52.0 °F 81% 30.07 in 10.0 mi Variable 4.6 mph - 0.01 in   Partly Cloudy
11:53 AM 59.0 °F 52.0 °F 78% 30.09 in 10.0 mi West 8.1 mph - N/A   Clear
12:53 PM 60.1 °F 50.0 °F 69% 30.09 in 10.0 mi West 4.6 mph - N/A   Clear
1:53 PM 62.1 °F 48.9 °F 62% 30.09 in 10.0 mi Variable 4.6 mph - N/A   Clear
2:53 PM 64.0 °F 48.0 °F 56% 30.09 in 10.0 mi NW 5.8 mph - N/A   Clear
3:53 PM 63.0 °F 46.9 °F 56% 30.08 in 10.0 mi West 4.6 mph - N/A   Scattered Clouds
4:53 PM 64.0 °F 46.9 °F 54% 30.08 in 10.0 mi WNW 4.6 mph - N/A   Clear
5:53 PM 64.0 °F 45.0 °F 50% 30.08 in 10.0 mi Calm Calm - N/A   Clear
6:53 PM 63.0 °F 46.9 °F 56% 30.08 in 10.0 mi Calm Calm - N/A   Clear
7:53 PM 62.1 °F 46.0 °F 56% 30.07 in 10.0 mi Calm Calm - N/A   Clear
8:53 PM 62.1 °F 44.1 °F 52% 30.08 in 10.0 mi East 3.5 mph - N/A   Clear
9:53 PM 60.1 °F 46.0 °F 60% 30.08 in 10.0 mi ESE 6.9 mph - N/A   Clear
10:53 PM 57.0 °F 48.9 °F 74% 30.08 in 10.0 mi ESE 6.9 mph - N/A   Clear
11:53 PM 55.0 °F 48.9 °F 80% 30.07 in 10.0 mi ESE 8.1 mph - 0.01 in   Clear